SWOT

导读

SWOT(Surface Water and Ocean Topography)卫星是由美国NASA主导,联合法国、加拿大航天机构共同开发的国际地球科学任务卫星,于美国当地时间2022年12月16日由SpaceX猎鹰9号火箭从范登堡太空军基地发射入轨。 这是人类首颗专门从太空对全球地表水和海洋地形进行全面观测的卫星,搭载先进微波雷达技术,将每21天完成至少两次全球扫描,可获取全球超90%区域的水文数据,助力气候应对、海洋环流研究和淡水资源管理。

基本信息
目录编号:
54754
目录名称:
SWOT
国际标识:
2022-173A
轨道中心:
EARTH
卫星名称:
SWOT
卫星全名:
--
卫星状态:
在轨 (已飞行1277 天)
发射日期:
2022-12-16 UTC
国别 :
美国 (US)
星等 :
--
轨道信息
数据来源 国际轨道数据 AOE轨道数据
星历时间 2026-06-15T05:59:09+0800
9小时前
查看轨道信息
2026-06-15T05:00:00+0800
10小时前
查看轨道信息
半长轴 7271.346km 7271.343km
偏心率 0.0000241 0.0000569
轨道倾角 77.611° 77.612°
近地点辐角 92.283° 101.606°
升交点赤经 38.376° 38.432°
平近点角 267.835° 51.545°
近地点 893.033km 892.792km
远地点 893.385km 893.62km
周期 102.845分钟 102.845分钟
每日圈数 14.001693 14.001704
详细信息
使用方式:
暂无
2D轨道图
3D轨道图
轨道高度分析图
轨道倾角分析图
轨道综合分析图
查看轨道综合分析图